Theta_e
353 352 350 345 338 331 324 320 320 318 316 317 318 320 322 323 324 324 324 324 324 324 325 327 329 331 333 336 340 344 344 345 345 344 344 345 346 346 346 345 344 344 344
329 328 327 326 323 321 321 318 316 315 315 317 320 324 327 327 328 329 328 328 327 327 327 327 327 327 330 334 336 338 342 342 342 343 342 341 342 343 344 345 346 344 344
321 321 322 321 319 320 319 316 315 315 318 321 323 326 326 326 326 326 325 326 325 324 324 323 324 325 323 322 323 326 334 338 338 339 340 339 338 340 342 344 345 346 345
323 323 322 320 318 315 314 315 315 315 318 324 324 326 326 325 323 323 323 324 325 325 326 329 330 330 330 328 327 333 334 333 334 335 337 336 336 336 337 339 341 341 341
323 322 321 319 315 314 314 314 314 315 319 323 325 327 327 325 323 325 326 326 326 328 329 331 331 332 332 332 332 331 331 332 333 334 333 335 336 336 338 339 338 337 337
323 322 320 318 315 314 313 313 314 317 319 322 325 326 326 326 325 324 324 324 325 326 327 329 330 330 331 331 332 332 332 332 332 332 331 332 333 335 338 338 338 338 338
325 323 321 318 316 313 313 314 315 318 320 324 326 326 326 326 325 324 323 322 322 323 324 327 327 328 328 329 330 331 331 332 331 331 331 333 333 335 335 335 338 336 335
328 325 322 319 315 311 312 315 317 318 319 323 326 326 326 326 325 324 320 318 316 317 322 324 327 328 327 327 329 330 330 330 331 331 332 332 332 332 334 336 337 337 335
331 326 323 320 314 311 312 315 317 318 316 320 325 326 325 325 325 323 321 319 314 310 317 321 322 323 325 326 328 329 330 330 331 333 333 334 334 334 334 334 334 334 335
332 325 323 321 313 310 312 316 319 314 320 324 324 323 322 323 323 324 321 318 309 307 311 314 318 321 324 327 327 328 328 329 330 331 332 332 332 332 333 333 333 334 333
331 326 323 319 312 312 313 317 318 316 321 321 321 322 324 324 323 320 318 311 306 306 311 315 319 324 324 325 325 326 326 326 326 327 328 328 328 328 328 329 329 331 332
329 325 324 315 313 313 313 313 317 318 319 318 312 311 312 316 316 314 308 305 304 307 313 316 319 320 321 322 323 322 323 323 325 325 325 325 325 326 326 326 326 327 328
327 325 322 314 314 314 316 317 321 322 323 317 315 312 310 307 305 304 304 304 304 309 315 316 318 318 319 321 320 320 320 318 317 318 318 317 317 317 317 320 321 321 321
326 324 317 312 314 317 318 318 320 318 317 317 316 314 313 312 310 306 303 303 306 310 315 313 312 314 317 317 316 315 315 313 311 312 313 313 312 311 310 310 311 312 313
323 319 313 313 316 319 319 319 319 318 317 316 316 315 314 314 311 307 304 305 310 312 312 311 311 311 311 311 311 310 309 309 308 307 309 309 308 307 306 305 304 304 304
319 316 313 318 320 320 320 316 316 318 316 315 314 314 315 315 313 311 309 306 309 312 312 312 312 311 311 311 311 310 309 309 308 309 309 309 308 305 303 303 302 302 301
317 317 313 313 318 319 317 316 317 316 316 316 315 314 315 315 314 313 313 312 310 311 312 312 312 312 311 311 311 309 308 308 309 310 309 309 308 307 306 305 304 303 302
320 319 316 313 313 318 318 318 317 318 317 317 315 315 315 315 315 315 314 313 313 312 311 311 311 311 311 310 310 309 308 308 310 310 309 309 308 306 307 308 308 307 305
322 321 320 317 315 313 318 317 318 319 318 318 317 316 316 316 315 315 315 315 314 313 312 311 311 311 311 310 308 307 308 308 309 309 309 308 306 308 310 310 310 309 308
322 321 321 320 317 315 318 318 318 317 317 315 316 317 317 317 316 316 316 316 315 314 312 312 312 312 312 311 308 307 308 309 309 308 307 306 310 311 311 311 310 309 309
326 325 323 321 320 319 317 318 317 317 317 317 316 316 317 317 316 317 316 316 316 315 314 313 313 313 312 311 310 308 308 310 311 310 311 312 312 312 311 311 310 309 309
327 327 327 326 325 322 321 319 318 318 318 318 318 318 319 318 318 318 318 316 316 315 315 314 314 314 313 313 312 310 311 312 312 312 312 312 312 312 311 311 310 310 308
327 327 327 327 326 326 325 324 322 320 320 320 321 321 321 319 319 320 320 319 318 317 316 315 314 314 314 314 313 313 312 312 312 312 312 312 312 312 312 311 310 308 304
326 325 324 324 325 325 325 325 325 324 323 323 323 321 321 321 321 321 320 319 319 319 319 316 315 315 314 314 314 313 313 313 313 313 313 313 313 313 312 311 308 305 304
326 325 324 324 323 322 322 323 323 323 323 323 323 323 323 323 323 323 322 321 322 321 320 320 317 315 314 314 314 314 314 313 313 313 313 313 313 312 311 309 305 305 304
323 323 323 323 323 323 323 323 324 324 324 323 323 323 323 322 323 322 322 322 322 322 321 321 320 316 315 314 314 314 314 314 314 313 313 314 312 311 309 305 305 305 304
Wind_Speed
11 10 11 11 10 11 11 11 12 12 11 10 9 9 9 9 9 9 9 9 9 10 13 15 16 17 17 16 16 13 12 13 17 23 21 18 17 17 16 17 18 17 17
8 6 7 10 10 10 10 10 10 10 10 9 8 7 7 9 8 8 8 9 9 9 10 11 13 14 15 15 15 15 15 13 15 19 19 17 17 15 15 17 16 17 19
7 5 6 8 9 10 11 11 9 9 9 8 8 7 8 9 9 10 10 10 10 8 8 8 8 8 8 10 12 13 15 17 16 18 20 18 17 16 15 15 14 15 16
8 6 5 7 8 10 11 11 11 9 8 9 7 7 8 11 12 12 8 6 7 6 6 6 6 7 8 7 5 5 8 11 12 13 16 19 19 19 19 18 17 16 15
8 6 6 7 7 7 8 10 10 9 9 9 10 10 10 10 6 5 5 4 4 4 5 5 5 5 6 6 7 8 9 11 11 13 15 15 15 16 17 17 19 19 19
7 7 6 7 7 7 8 8 8 8 7 4 2 5 5 5 6 6 7 7 6 7 6 6 6 6 6 7 9 10 12 13 14 16 17 18 18 18 16 16 17 17 19
7 7 6 8 9 9 9 6 5 5 5 3 4 4 4 6 5 6 9 10 11 10 9 9 8 9 10 11 10 9 9 10 11 12 13 14 16 16 18 18 14 12 13
9 9 8 7 8 9 9 7 6 5 6 8 7 6 8 7 7 7 9 9 12 12 11 11 11 12 13 12 9 7 7 7 7 8 9 11 13 14 15 16 15 14 14
11 9 8 8 9 9 8 7 6 6 8 7 9 9 9 8 9 7 10 12 13 12 10 11 13 13 12 9 8 7 6 7 8 8 6 5 9 10 11 11 13 15 14
10 9 8 9 9 9 7 5 5 7 5 6 9 11 9 8 10 11 13 15 15 11 9 9 11 10 7 7 8 8 8 7 4 3 5 8 11 12 12 11 7 6 9
11 10 8 9 8 7 7 7 6 5 6 6 7 8 10 11 11 12 14 15 14 11 8 7 6 6 5 6 7 9 10 9 8 8 9 8 7 7 6 6 6 6 5
11 10 9 9 7 5 5 5 5 5 4 7 8 9 10 12 12 13 14 14 12 9 8 6 4 6 6 6 6 8 9 8 7 8 8 7 5 4 5 5 7 9 8
10 10 11 9 7 5 4 5 3 5 7 7 8 11 10 9 11 11 11 11 10 8 6 5 2 4 6 5 4 5 8 7 6 6 6 7 7 8 7 6 6 6 7
10 12 11 9 7 8 6 5 6 4 5 6 8 9 10 11 11 10 9 8 7 6 5 6 6 5 3 4 5 5 6 8 8 7 5 6 7 8 8 7 7 7 9
11 12 10 9 8 10 9 8 10 8 7 8 9 9 10 11 12 10 8 5 5 4 2 3 4 3 2 3 5 7 8 7 6 5 5 7 8 9 9 11 11 12 13
10 10 11 12 10 11 11 11 11 10 9 9 9 9 10 10 9 9 9 6 6 6 6 5 4 5 6 7 9 10 8 6 5 5 6 6 7 8 12 15 16 16 16
7 9 11 14 12 11 12 11 10 10 9 11 10 11 11 11 10 9 8 8 8 9 8 10 8 8 9 10 10 11 9 6 5 5 6 6 6 8 11 15 18 20 21
7 10 10 11 12 15 15 15 12 11 12 12 13 12 12 11 13 14 13 12 11 11 12 12 11 10 11 12 12 12 7 5 5 6 6 5 7 9 12 16 19 23 25
9 10 11 12 12 13 12 11 12 13 14 15 13 14 14 16 17 18 18 18 15 15 14 12 11 9 10 13 13 11 7 5 5 8 7 7 7 10 13 17 20 24 27
13 12 13 13 11 13 16 14 14 16 17 16 18 17 17 18 18 17 16 18 19 16 15 14 9 9 10 13 13 10 8 6 6 7 8 7 9 12 16 19 22 26 29
14 14 15 15 15 14 16 17 15 15 14 15 16 17 17 19 20 20 19 18 20 18 14 12 10 12 11 11 12 11 9 6 5 5 7 9 13 17 19 21 24 27 31
21 21 21 21 19 19 19 18 18 18 18 19 19 19 19 22 23 21 21 19 20 21 20 17 15 15 14 12 11 11 10 8 7 9 11 14 17 21 24 25 26 30 32
27 28 27 27 26 25 22 21 21 22 23 23 23 24 23 25 24 24 24 24 25 26 24 24 21 19 18 15 14 14 13 12 11 13 15 18 21 25 26 26 28 31 34
19 20 20 20 21 21 24 25 24 25 27 27 27 29 30 28 28 28 27 25 20 23 24 28 28 25 22 19 16 16 16 17 17 17 18 20 22 24 26 26 29 31 33
16 16 17 19 19 20 21 21 23 25 24 25 26 27 29 29 31 30 28 28 29 29 26 25 30 29 25 23 19 17 17 19 19 21 21 21 21 23 24 26 29 32 31
18 19 19 20 22 24 25 27 27 27 28 28 29 28 27 27 27 27 26 29 32 30 31 32 30 29 27 23 21 20 21 23 22 21 19 20 22 22 24 26 29 30 27
Wind_Direction
217 241 251 264 271 273 272 277 282 284 282 280 280 281 283 289 295 300 299 293 292 286 280 278 276 275 272 270 273 280 285 285 285 287 292 299 291 288 281 279 279 270 269
203 233 268 274 275 273 278 280 287 288 285 281 280 281 294 298 300 301 307 305 307 304 296 290 285 278 275 270 270 270 272 282 292 293 297 301 301 299 292 284 285 281 273
188 217 250 275 289 291 293 294 290 285 276 275 278 276 293 305 307 305 311 314 316 317 315 311 310 307 296 279 267 267 269 272 280 291 298 303 306 308 303 298 292 284 279
185 218 264 296 296 290 293 295 293 281 262 265 280 283 295 308 314 319 312 319 319 324 330 334 325 322 324 321 295 285 286 287 288 289 292 295 302 308 306 303 294 289 285
185 222 261 293 296 292 293 297 291 279 272 267 273 280 294 310 349 12 359 338 321 323 327 330 343 353 339 332 321 308 299 294 293 290 290 298 307 310 309 304 298 292 288
191 231 267 298 305 301 300 301 292 283 284 247 296 333 336 349 357 5 3 356 336 319 310 306 306 314 320 324 316 313 306 298 293 295 293 289 290 299 304 305 303 299 303
213 244 275 303 310 308 307 304 296 291 289 265 278 265 269 306 314 332 346 338 332 327 325 311 307 313 321 320 322 310 312 296 290 293 297 292 294 298 300 302 301 302 303
224 249 266 290 300 301 300 299 293 299 290 256 235 241 254 279 289 308 328 333 332 322 310 305 309 311 319 321 335 346 346 333 316 310 309 303 304 309 305 300 289 297 306
234 250 268 295 304 294 288 284 289 295 307 238 243 257 263 274 284 314 327 334 337 333 315 306 308 308 308 317 314 330 352 13 20 7 344 337 328 333 332 306 288 290 297
251 260 269 293 299 292 282 273 273 290 273 234 246 261 275 283 302 307 314 326 334 335 320 306 312 317 320 324 319 326 336 335 343 333 311 313 316 316 319 321 334 294 282
250 253 266 289 290 281 268 264 256 250 229 273 287 289 282 292 289 294 308 320 331 334 334 329 329 359 350 349 350 348 343 340 331 322 316 312 314 319 332 342 341 315 310
255 259 281 281 276 257 257 256 217 225 249 303 314 313 296 288 289 295 308 320 329 334 338 338 7 9 348 332 323 325 340 339 328 319 313 311 314 310 322 332 323 310 307
243 263 280 271 260 244 234 223 227 264 254 300 318 327 327 318 308 304 311 317 322 325 336 8 338 343 329 307 319 337 343 351 359 347 1 9 10 1 344 318 302 289 291
253 273 276 268 241 219 224 225 233 255 269 284 301 320 332 340 335 318 313 315 323 327 335 336 321 292 328 332 336 337 337 343 352 8 19 13 354 341 345 342 328 308 294
267 279 268 249 226 217 232 234 246 253 269 278 288 296 311 332 342 339 330 323 339 340 335 348 11 40 15 358 353 350 346 339 336 347 354 358 359 3 7 1 349 340 332
282 275 256 238 245 248 241 255 263 252 259 280 278 282 290 302 330 358 356 331 315 311 304 297 311 334 350 344 337 337 336 329 336 355 1 8 14 24 16 11 8 1 349
284 277 264 251 248 247 249 262 257 261 268 284 289 283 282 282 287 302 327 340 322 305 293 294 296 311 331 328 329 332 324 303 293 310 336 350 7 5 2 3 3 0 355
293 289 285 276 259 252 261 263 264 270 273 285 285 267 271 278 273 275 287 293 296 293 289 292 293 302 317 320 314 315 308 309 278 288 306 320 335 348 358 358 356 352 348
295 291 291 293 285 257 259 262 261 275 270 279 273 274 274 279 280 272 277 282 288 292 281 287 296 300 313 316 307 294 274 305 295 291 291 305 329 338 347 347 344 342 336
291 292 290 292 284 261 256 261 269 277 282 284 268 272 279 272 272 280 287 290 284 293 284 274 288 300 302 304 300 274 261 273 288 300 290 308 329 333 338 336 332 328 328
290 291 284 284 286 278 261 262 273 281 279 278 270 272 278 282 280 282 284 282 282 277 279 275 281 288 292 288 293 273 259 259 276 291 300 321 327 325 328 322 321 320 320
289 290 292 285 284 281 283 274 267 269 273 277 278 279 282 282 284 284 284 281 278 279 270 270 274 276 281 273 277 267 256 261 274 287 296 306 311 314 314 313 313 313 316
281 281 282 288 287 289 279 279 277 272 271 273 277 280 277 279 282 285 286 285 275 277 272 264 268 273 272 268 258 260 265 273 285 291 292 297 299 303 307 308 312 313 316
282 285 287 286 287 288 288 287 288 285 279 282 284 279 280 281 283 279 276 277 275 273 278 265 263 266 269 264 258 254 263 273 280 284 287 291 296 300 301 307 311 313 316
265 271 272 273 274 277 281 285 289 291 287 284 286 284 284 284 288 286 279 273 285 282 273 280 265 261 262 261 254 252 261 268 272 277 278 291 296 298 301 307 312 314 316
292 285 285 282 280 277 276 276 276 277 279 283 286 286 282 279 279 280 275 275 277 281 269 269 275 257 257 259 251 253 264 269 271 272 280 291 298 299 302 309 312 313 316